EHI
0 0 0 0 0 0 0 0 1 2 6 9 8 6 3 1 1 1 0 0 0 0 0 0 0 0 0 0 0 0 0 0 0 0 0 0 0 0 0 0 0 0 0
0 0 0 0 0 0 0 0 1 3 6 8 7 6 5 4 3 2 1 0 0 0 0 0 0 0 0 0 0 0 0 0 0 0 0 0 0 0 0 0 0 0 0
0 0 0 0 0 0 0 0 1 2 4 5 7 8 9 9 7 5 3 2 1 0 0 0 0 0 0 0 0 0 0 0 0 0 0 0 0 0 0 0 0 0 0
0 0 0 0 0 0 0 0 0 1 1 4 7 9 9 10 10 9 7 5 4 2 0 0 0 0 0 0 0 0 0 0 0 0 0 0 0 0 0 0 0 0 0
0 0 0 0 0 0 0 0 0 0 0 2 6 8 7 6 9 10 9 7 6 4 2 1 0 0 0 0 0 0 0 0 0 0 0 0 0 0 0 0 0 0 0
0 0 0 0 0 0 0 0 0 0 0 1 2 4 4 4 6 8 7 6 6 6 5 3 2 2 1 0 0 0 0 0 0 0 0 0 0 0 0 0 0 0 0
0 0 0 0 0 0 0 0 0 0 0 0 1 2 3 3 4 5 5 4 5 7 6 5 5 5 4 2 0 0 0 0 0 0 0 0 0 0 0 0 0 0 0
0 0 0 0 0 0 0 0 0 0 0 0 0 1 2 3 3 4 3 1 2 4 5 5 5 6 6 3 1 0 0 0 0 0 0 0 0 0 0 0 0 0 0
0 0 0 0 0 0 0 0 0 0 0 0 0 0 1 2 3 2 1 0 0 1 3 3 4 5 5 4 2 0 0 0 0 0 0 0 0 0 0 0 0 0 0
0 0 0 0 0 0 0 0 0 0 0 0 0 0 0 1 2 1 0 0 0 0 1 2 3 2 3 4 2 0 0 0 0 0 0 0 0 0 0 0 0 0 0
0 0 0 0 0 0 0 0 0 0 0 0 0 0 0 0 0 0 0 0 0 0 0 1 1 1 1 2 1 0 0 0 0 0 0 0 0 0 0 0 0 0 0
0 0 0 0 0 0 0 0 0 0 0 0 0 0 0 0 0 0 0 0 0 0 0 0 0 0 0 0 0 0 0 0 0 0 0 0 0 0 0 0 0 0 0
0 0 0 0 0 0 0 0 0 0 0 0 0 0 0 0 0 0 0 0 0 0 0 0 0 0 0 0 0 0 0 0 0 0 0 0 0 0 0 0 0 0 0
0 0 0 0 0 0 0 0 0 0 0 0 0 0 0 0 0 0 0 0 0 0 0 0 0 0 0 0 0 0 0 0 0 0 0 0 0 0 0 0 0 0 0
0 0 0 0 0 0 0 0 0 0 0 0 0 0 0 0 0 0 0 0 0 0 0 0 0 0 0 0 0 0 0 0 0 0 0 0 0 0 0 0 0 0 0
0 0 0 0 0 0 0 0 0 0 0 0 0 0 0 0 0 0 0 0 0 0 0 0 0 0 0 0 0 0 0 0 0 0 0 0 0 0 0 0 0 0 0
0 0 0 0 0 0 0 0 0 0 0 0 0 0 0 0 0 0 0 0 0 0 0 0 0 0 0 0 0 0 0 0 0 0 0 0 0 0 0 0 0 0 0
0 0 0 0 0 0 0 0 0 0 0 0 0 0 0 0 0 0 0 0 0 0 0 0 0 0 0 0 0 0 0 0 0 0 0 0 0 0 0 0 0 0 0
0 0 0 0 0 0 0 0 0 0 0 0 0 0 0 0 0 0 0 0 0 0 0 0 0 0 0 0 0 0 0 0 0 0 0 0 0 0 0 0 0 0 0
0 0 0 0 0 0 0 0 0 0 0 0 0 0 0 0 0 0 0 0 0 0 0 0 0 0 0 0 0 0 0 0 0 0 0 0 0 0 0 0 0 0 0
0 0 0 0 0 0 0 0 0 0 0 0 0 0 0 0 0 0 0 0 0 0 0 0 0 0 0 0 0 0 0 0 0 0 0 0 0 0 0 0 0 0 0
0 0 0 0 0 0 0 0 0 0 0 0 0 0 0 0 0 0 0 0 0 0 0 0 0 0 0 0 0 0 0 0 0 0 0 0 0 0 0 0 0 0 0
0 0 0 0 0 0 0 0 0 0 0 0 0 0 0 0 0 0 0 0 0 0 0 0 0 0 0 0 0 0 0 0 0 0 0 0 0 0 0 0 0 0 0
0 0 0 0 0 0 0 0 0 0 0 0 0 0 0 0 0 0 0 0 0 0 0 0 0 0 0 0 0 0 0 0 0 0 0 0 0 0 0 0 0 0 0
0 0 0 0 0 0 0 0 0 0 0 0 0 0 0 0 0 0 0 0 0 0 0 0 0 0 0 0 0 0 0 0 0 0 0 0 0 0 0 0 0 0 0
0 0 0 0 0 0 0 0 0 0 0 0 0 0 0 0 0 0 0 0 0 0 0 0 0 0 0 0 0 0 0 0 0 0 0 0 0 0 0 0 0 0 0
Wind_Speed
9 7 7 7 7 8 10 11 11 12 10 8 9 9 10 10 10 10 13 14 14 15 14 11 12 12 11 12 12 10 10 7 6 5 5 5 6 7 6 7 7 8 8
8 6 5 5 6 7 8 9 10 10 11 10 9 8 9 8 10 9 12 15 15 16 13 15 13 13 12 14 14 12 9 7 8 7 5 5 6 7 7 7 7 8 8
7 5 4 4 4 4 5 5 7 8 9 10 8 7 7 6 8 11 11 15 16 16 16 16 15 13 13 13 15 15 14 10 9 9 7 6 8 5 6 8 7 8 7
3 2 2 1 1 2 3 3 5 6 7 8 9 11 10 11 13 11 10 12 15 16 16 16 16 14 13 14 14 15 13 12 9 8 7 5 2 4 5 5 6 7 8
1 1 1 1 1 2 2 2 3 4 5 6 8 10 11 11 10 10 12 12 12 14 15 15 14 14 12 14 14 14 14 12 11 8 6 6 3 4 4 4 5 5 5
3 3 2 2 3 3 3 2 2 3 4 5 7 9 11 12 12 13 12 11 9 10 14 14 13 13 12 13 13 13 14 12 11 8 7 6 5 6 5 4 3 4 3
4 4 4 4 4 4 4 4 3 3 3 4 6 8 10 12 13 13 12 11 9 9 11 11 12 11 11 10 10 10 11 11 10 9 6 5 4 3 3 3 3 2 2
4 4 4 4 4 5 5 5 5 5 5 5 6 7 9 8 8 11 10 10 9 9 9 10 10 9 9 8 8 7 8 7 8 7 6 4 3 3 2 3 4 3 1
4 4 4 5 5 5 6 6 6 6 6 6 6 6 7 8 9 9 9 8 7 6 7 8 8 8 7 8 7 6 7 6 6 6 6 5 4 4 3 3 3 4 4
3 4 4 5 5 5 6 6 6 7 7 7 6 5 7 7 7 6 6 6 6 5 6 6 7 7 7 7 7 7 7 8 7 6 8 7 5 5 4 4 3 2 2
3 3 3 4 5 5 6 6 6 7 7 7 7 6 6 5 4 4 4 4 4 4 5 6 6 7 7 8 8 8 9 10 9 8 9 8 7 6 5 4 3 3 2
2 1 2 3 4 5 6 6 6 7 7 7 6 6 6 5 3 2 2 1 2 3 4 5 6 7 7 8 9 10 10 10 10 9 9 9 7 7 5 4 3 2 2
1 0 1 2 4 5 5 6 6 6 6 6 6 6 6 5 5 4 4 4 4 5 5 7 7 8 8 8 9 10 10 9 9 9 9 8 8 6 4 4 3 2 2
0 0 1 2 3 4 4 5 5 6 6 5 5 6 6 6 6 7 7 7 8 8 8 8 8 8 8 9 9 10 10 10 9 8 8 7 6 6 5 3 3 3 3
0 0 1 2 3 3 4 5 5 5 5 5 6 6 7 7 8 8 9 9 10 9 9 10 10 9 8 8 10 10 10 10 9 8 7 6 6 5 3 2 2 3 3
1 0 1 1 2 3 3 4 4 5 5 6 7 7 7 8 8 9 9 10 10 10 10 10 10 10 8 14 15 11 9 9 8 7 6 5 4 3 2 3 4 5 5
1 1 1 1 1 2 3 3 4 4 6 7 7 7 7 8 8 9 10 10 10 10 10 10 10 11 13 16 16 14 9 8 7 6 5 3 2 1 2 3 5 6 7
1 2 2 2 2 2 3 3 4 5 6 7 7 7 8 8 9 9 10 10 9 9 9 10 10 10 12 15 15 13 8 7 5 4 3 2 2 1 3 4 5 6 6
2 2 2 3 3 3 4 4 5 6 7 7 7 7 7 8 9 9 9 8 9 9 9 9 9 9 11 13 13 9 5 5 4 3 1 0 1 2 6 5 6 7 7
3 3 3 4 4 4 4 5 5 6 7 7 7 7 8 8 8 8 8 8 8 8 8 8 7 8 8 10 10 7 3 3 2 1 1 1 3 4 6 6 6 7 7
4 4 4 4 4 4 5 6 6 6 6 7 8 8 8 8 8 8 7 8 8 8 8 8 7 7 7 8 7 5 2 1 1 0 1 1 4 7 7 7 6 8 9
5 5 5 4 4 5 6 7 6 6 7 7 8 8 8 7 7 8 7 7 7 7 7 6 6 4 4 5 4 4 3 2 1 1 2 2 6 7 7 6 7 10 9
5 5 6 6 5 5 5 7 6 7 7 8 8 8 7 6 6 6 7 6 5 4 4 4 3 3 2 3 3 3 3 3 2 2 4 6 7 7 5 5 7 7 5
6 6 7 6 5 5 5 6 7 7 8 8 8 7 7 6 5 4 4 4 4 3 3 3 3 2 1 1 1 1 1 2 2 3 3 5 5 5 5 5 4 4 4
7 7 6 6 6 6 6 7 7 8 8 8 7 6 6 6 5 4 4 3 3 2 2 2 2 1 1 1 3 3 3 3 3 4 3 3 3 3 3 3 3 4 4
7 7 7 7 7 7 7 7 7 8 8 7 6 5 5 4 4 5 5 6 5 6 5 4 2 1 1 2 3 4 4 5 5 4 3 4 4 4 4 5 5 5 5
Wind_Direction
250 249 242 233 226 226 227 226 223 218 212 208 209 212 218 220 221 223 224 222 219 215 215 215 213 208 208 207 203 198 198 199 183 180 195 207 217 218 209 210 204 198 198
241 241 240 234 227 225 226 229 227 225 218 216 215 219 222 224 224 223 226 224 221 218 216 216 215 211 212 211 206 198 198 191 189 194 194 209 207 216 214 210 213 206 195
244 244 240 233 231 234 237 236 235 233 227 226 223 220 222 227 224 224 224 224 223 220 217 219 218 214 212 213 208 202 201 197 197 206 204 209 219 180 190 211 211 208 202
225 231 230 225 238 261 266 258 252 244 237 230 226 222 221 225 228 229 229 228 225 224 221 220 220 217 214 216 212 207 208 204 197 204 227 247 274 191 179 192 210 213 214
134 134 99 30 1 335 310 290 275 262 255 242 233 233 235 238 241 238 237 234 228 226 224 222 220 220 217 218 214 208 210 209 205 193 191 207 228 243 215 189 181 201 214
87 88 80 65 43 26 12 345 305 281 273 259 246 238 240 244 246 244 242 239 234 229 225 223 221 221 218 218 216 210 210 211 210 198 190 183 186 201 207 203 175 185 177
76 72 64 53 40 27 16 1 345 322 303 279 263 253 249 249 248 248 247 244 239 233 227 222 223 222 219 216 211 207 207 206 204 200 197 197 189 159 178 181 155 155 136
58 56 48 38 32 22 11 2 351 338 328 307 286 271 261 254 252 251 250 249 246 241 232 223 221 218 211 204 198 194 194 190 192 190 177 159 147 135 140 149 142 139 159
42 43 38 28 19 12 7 358 348 340 336 323 305 287 276 265 260 258 255 254 249 243 230 217 210 204 195 188 178 178 175 164 166 155 142 132 120 108 95 100 126 147 179
26 28 26 18 10 5 359 357 353 345 339 333 322 307 294 282 273 265 256 251 245 231 215 207 196 187 180 169 161 154 151 142 138 135 131 125 121 108 100 100 87 84 139
2 10 15 12 8 5 0 357 354 350 347 343 335 327 318 309 297 276 264 254 236 215 202 191 176 168 160 154 149 144 143 138 132 132 131 127 125 118 110 107 109 114 147
346 1 14 11 8 5 1 358 355 353 351 347 345 347 345 346 347 341 326 266 189 172 164 152 142 139 141 142 140 138 137 136 135 134 130 129 126 121 120 122 133 151 183
312 73 36 22 12 4 1 359 360 358 356 358 1 9 13 19 29 37 50 70 92 103 110 116 120 123 127 128 127 128 128 128 128 131 130 129 129 126 128 136 151 174 200
240 30 41 33 18 8 4 3 9 7 6 13 22 29 32 40 50 59 68 75 84 90 95 97 100 105 110 113 116 116 114 113 111 111 114 119 127 133 143 157 176 192 220
260 58 42 38 26 20 18 17 19 20 23 33 41 43 47 56 63 69 74 78 82 86 92 95 95 96 97 104 108 108 110 109 106 103 105 111 120 132 153 180 196 216 236
235 123 71 49 38 30 26 27 31 35 46 55 55 56 61 66 69 73 78 82 84 86 89 91 94 93 95 107 107 107 106 109 111 111 109 113 122 142 189 230 242 245 253
209 177 120 85 55 44 41 46 48 58 67 68 67 67 70 73 74 79 82 83 84 87 89 91 94 96 103 108 107 105 104 104 106 111 117 125 136 175 236 242 252 256 263
181 159 132 115 100 92 86 83 79 80 79 76 73 74 78 80 81 82 83 84 85 86 88 89 92 95 102 105 105 104 99 100 103 104 110 131 170 213 252 261 266 271 269
143 137 131 130 128 116 110 106 97 91 87 81 77 81 87 90 89 87 86 87 89 88 88 88 91 96 102 104 105 102 101 103 103 104 119 195 240 254 272 278 281 285 284
130 131 131 131 129 122 125 118 104 95 90 89 88 88 90 93 94 94 94 92 91 92 92 87 88 97 103 106 107 105 101 108 108 126 170 239 294 297 295 292 287 289 298
137 138 139 134 130 133 131 117 108 99 100 102 98 93 94 96 99 98 95 98 98 97 94 92 87 87 94 105 103 95 80 85 95 276 294 311 309 309 309 304 293 295 301
150 150 144 134 134 141 135 122 115 113 112 109 104 100 100 101 102 102 100 101 105 104 101 99 92 82 84 85 89 79 60 27 345 320 320 320 319 318 314 305 300 300 300
161 158 150 140 139 143 141 131 128 128 122 114 108 105 103 100 105 109 113 112 112 111 110 108 105 95 82 81 72 53 34 4 330 324 325 322 322 316 301 294 301 299 286
168 163 158 153 148 144 139 135 137 137 129 121 117 115 111 108 106 106 112 116 118 121 124 124 123 120 109 76 37 7 350 335 319 309 309 309 305 293 292 296 289 282 286
171 169 168 162 154 148 143 143 146 144 135 129 125 121 117 119 113 103 91 99 94 103 129 131 135 147 147 20 350 341 334 329 330 316 296 295 300 303 304 299 295 291 286
171 171 170 163 158 156 151 151 154 151 143 138 136 132 133 130 127 122 107 82 90 99 98 99 100 93 26 360 344 337 333 328 327 305 298 305 309 310 312 309 306 301 294